Location: Unspecified
(0.0000°N, 0.0000°E)
Time: 20:41:56
(UTC+00:00)

N. Korean satellite - Pass Details

Date: 28 March 2023
Orbit: 390 x 416 km, 97.3° (Epoch: 29 March)

Event Time Altitude Azimuth Distance (km) Brightness Sun altitude
Rises 05:11:26 0° 5° (N) 2,274 10.1 -13.4°
Reaches altitude 10° 05:13:25 10° 1° (N) 1,419 9.0 -12.9°
Maximum altitude 05:16:23 59° 281° (W) 454 6.1 -12.2°
Drops below altitude 10° 05:19:23 10° 200° (SSW) 1,422 8.7 -11.5°
Sets 05:21:22 0° 196° (SSW) 2,280 9.8 -11.0°
